Wheaton, MN

5:40 PM CDT on August 31, 2016 (GMT -0500)
Wheaton Municipal

Weather History for KETH - January, 2014

Change the Weather History Date:

Monday, January 20, 2014

  Actual Average Record
Temperature  
Mean Temperature 8 °F -  
Max Temperature 30 °F 21 °F 47 °F (1992)
Min Temperature -13 °F 0 °F -29 °F (1970)
Degree Days  
Heating Degree Days 56    
Moisture  
Dew Point 3 °F    
Average Humidity 85    
Maximum Humidity 100    
Minimum Humidity 70    
Precipitation  
Precipitation 0.00 in - - ()
Sea Level Pressure  
Sea Level Pressure 30.19 in    
Wind  
Wind Speed 13 mph (NNW)    
Max Wind Speed 28 mph    
Max Gust Speed 38 mph    
Visibility 7 miles    
Events Snow    
Averages and records for this station are not official NWS values.
T = Trace of Precipitation, MM = Missing Value Source: NWS Daily Summary

Daily Weather History Graph

Daily Weather History Graph

Search for Another Location

Airport or City:

Trip Planner

Search our weather history database for the weather conditions in past years. The results will help you decide how hot, cold, wet, or windy it might be!

Date:

Astronomy

Jan. 20, 2014 Rise Set
Actual Time 7:59 AM CST 5:15 PM CST
Civil Twilight 7:27 AM CST 5:47 PM CST
Nautical Twilight 6:50 AM CST 6:24 PM CST
Astronomical Twilight 6:15 AM CST 6:59 PM CST
Moon 10:07 PM CST (1/20) 9:44 AM CST (1/20)
Length of Visible Light 10h 20m
Length of Day
9h 15m
Waning Gibbous, 82% of the Moon is Illuminated
Jan 20
Waning Gibbous
Jan 23
Last Quarter
Jan 30
New
Feb 6
First Quarter
Feb 14
Full

Hourly Weather History & Observations

Time (CST) Temp. Windchill Dew Point Humidity Pressure Visibility Wind Dir Wind Speed Gust Speed Precip Events Conditions
12:05 AM 28.4 °F 20.4 °F 26.6 °F 93% 29.78 in 10.0 mi WSW 8.1 mph - N/A   Scattered Clouds
12:54 AM 30.2 °F 21.3 °F 26.6 °F 86% 29.78 in 10.0 mi West 10.4 mph - N/A   Clear
1:14 AM 30.2 °F 20.8 °F 28.4 °F 93% 29.79 in 10.0 mi WNW 11.5 mph - N/A   Scattered Clouds
1:34 AM 30.2 °F 20.2 °F 28.4 °F 93% 29.79 in 10.0 mi WNW 12.7 mph - N/A   Scattered Clouds
1:54 AM 26.6 °F 16.8 °F 23.0 °F 86% 29.81 in 10.0 mi NNW 10.4 mph - N/A   Scattered Clouds
2:14 AM 23.0 °F 11.1 °F 21.2 °F 93% 29.83 in 10.0 mi NNW 12.7 mph - N/A   Clear
2:34 AM 21.2 °F 10.9 °F 21.2 °F 100% 29.84 in 7.0 mi NNW 9.2 mph - N/A   Mostly Cloudy
2:54 AM 21.2 °F 11.7 °F 21.2 °F 100% 29.85 in 7.0 mi NNW 8.1 mph - N/A   Overcast
3:14 AM 21.2 °F 12.6 °F 21.2 °F 100% 29.87 in 7.0 mi NNW 6.9 mph - N/A   Overcast
3:33 AM 21.2 °F 10.9 °F 21.2 °F 100% 29.87 in 7.0 mi NNW 9.2 mph - N/A   Overcast
3:48 AM 21.2 °F 11.7 °F 21.2 °F 100% 29.87 in 7.0 mi NNW 8.1 mph - N/A   Overcast
4:14 AM 21.2 °F 12.6 °F 19.4 °F 93% 29.86 in 5.0 mi North 6.9 mph - N/A   Overcast
4:34 AM 19.4 °F 9.5 °F 19.4 °F 100% 29.88 in 7.0 mi North 8.1 mph - N/A   Overcast
4:54 AM 19.4 °F 7.9 °F 17.6 °F 93% 29.88 in 10.0 mi North 10.4 mph - N/A   Overcast
5:14 AM 19.4 °F 8.6 °F 17.6 °F 93% 29.89 in 10.0 mi NNW 9.2 mph - N/A   Overcast
5:34 AM 19.4 °F 9.5 °F 17.6 °F 93% 29.89 in 10.0 mi NNW 8.1 mph - N/A   Overcast
5:54 AM 19.4 °F 8.6 °F 17.6 °F 93% 29.90 in 7.0 mi NNW 9.2 mph - N/A   Overcast
6:14 AM 17.6 °F 5.7 °F 15.8 °F 93% 29.91 in 10.0 mi NNW 10.4 mph - N/A Snow Light Snow
6:34 AM 17.6 °F 5.7 °F 15.8 °F 93% 29.92 in 10.0 mi NNW 10.4 mph - N/A   Overcast
6:54 AM 15.8 °F 1.4 °F 14.0 °F 93% 29.94 in 10.0 mi NNW 13.8 mph 20.7 mph N/A   Overcast
7:02 AM 15.8 °F 0.9 °F 14.0 °F 93% 29.93 in 10.0 mi NNW 15.0 mph 19.6 mph N/A   Overcast
7:54 AM 15.8 °F 0.9 °F 12.2 °F 86% 29.96 in 4.0 mi NNW 15.0 mph 20.7 mph N/A Snow Light Snow
8:14 AM 15.8 °F 0.9 °F 12.2 °F 86% 29.98 in 4.0 mi North 15.0 mph 23.0 mph N/A Snow Light Snow
8:34 AM 14.0 °F -0.8 °F 10.4 °F 86% 29.99 in 7.0 mi NNW 13.8 mph 21.9 mph N/A Snow Light Snow
8:55 AM 14.0 °F -2.0 °F 10.4 °F 86% 30.01 in 5.0 mi NNW 16.1 mph - N/A Snow Light Snow
9:14 AM 12.2 °F -5.8 °F 10.4 °F 92% 30.03 in 4.0 mi NNW 19.6 mph 25.3 mph N/A Snow Light Snow
9:34 AM 12.2 °F -3.7 °F 8.6 °F 85% 30.05 in 2.5 mi NNW 15.0 mph - N/A Snow Light Snow
9:54 AM 12.2 °F -5.3 °F 8.6 °F 85% 30.07 in 1.5 mi North 18.4 mph 23.0 mph N/A Snow Light Snow
10:14 AM 10.4 °F -7.2 °F 8.6 °F 92% 30.09 in 2.0 mi North 17.3 mph 21.9 mph N/A Snow Light Snow
10:34 AM 10.4 °F -9.1 °F 6.8 °F 85% 30.11 in 1.8 mi NNW 21.9 mph 25.3 mph N/A Snow Light Snow
10:54 AM 8.6 °F -10.5 °F 6.8 °F 92% 30.12 in 1.2 mi North 19.6 mph 26.5 mph N/A Snow Light Snow
11:14 AM 8.6 °F -11.4 °F 5.0 °F 85% 30.15 in 1.8 mi NNW 21.9 mph 26.5 mph N/A Snow Light Snow
11:34 AM 8.6 °F -11.0 °F 5.0 °F 85% 30.17 in 1.8 mi NNW 20.7 mph 28.8 mph N/A Snow Light Snow
11:53 AM 8.6 °F -10.5 °F 3.2 °F 79% 30.17 in - North 19.6 mph 25.3 mph N/A   Overcast
1:01 PM 6.8 °F -13.8 °F 1.4 °F 79% 30.23 in - NNW 21.9 mph 27.6 mph N/A   Overcast
1:21 PM 5.0 °F -17.1 °F 1.4 °F 85% 30.25 in - NNW 24.2 mph 32.2 mph N/A   Overcast
1:41 PM 3.2 °F -19.9 °F -0.4 °F 85% 30.27 in - NNW 25.3 mph 34.5 mph N/A   Overcast
1:54 PM 3.2 °F -19.9 °F -0.4 °F 85% 30.29 in - NNW 25.3 mph 33.4 mph N/A   Overcast
2:14 PM 3.2 °F -20.7 °F -0.4 °F 85% 30.30 in - NNW 27.6 mph 34.5 mph N/A   Overcast
2:34 PM 1.4 °F -22.7 °F -2.2 °F 85% 30.32 in - NNW 26.5 mph 38.0 mph N/A   Mostly Cloudy
2:54 PM 1.4 °F -22.7 °F -2.2 °F 85% 30.34 in - NNW 26.5 mph 38.0 mph N/A   Unknown
3:14 PM 1.4 °F -23.2 °F -4.0 °F 78% 30.37 in - NNW 27.6 mph 36.8 mph N/A   Mostly Cloudy
3:34 PM -0.4 °F -25.2 °F -5.8 °F 78% 30.39 in - NNW 26.5 mph 36.8 mph N/A   Scattered Clouds
3:54 PM - - - N/A% 30.41 in - NW 20.7 mph - N/A   Unknown
4:14 PM -2.2 °F -25.7 °F -7.6 °F 78% 30.42 in - NNW 21.9 mph 32.2 mph N/A   Overcast
4:34 PM -4.0 °F -27.6 °F -7.6 °F 85% 30.43 in - NW 20.7 mph 28.8 mph N/A   Overcast
4:54 PM -5.8 °F -31.0 °F -9.4 °F 84% 30.45 in - NW 23.0 mph 29.9 mph N/A   Mostly Cloudy
5:14 PM -5.8 °F -29.4 °F -11.2 °F 77% 30.47 in - NW 19.6 mph 31.1 mph N/A   Overcast
5:23 PM -5.8 °F -28.8 °F -11.2 °F 77% 30.47 in - NW 18.4 mph 27.6 mph N/A   Overcast
5:54 PM -7.6 °F -32.3 °F -13.0 °F 77% 30.51 in - NW 20.7 mph 27.6 mph N/A   Scattered Clouds
6:07 PM -7.6 °F -30.5 °F -13.0 °F 77% 30.52 in - NW 17.3 mph 26.5 mph N/A   Scattered Clouds
7:21 PM -9.4 °F -33.5 °F -16.6 °F 71% 30.57 in - NW 18.4 mph 23.0 mph N/A   Clear
7:41 PM -9.4 °F -32.1 °F -16.6 °F 71% - - NW 16.1 mph - N/A   Clear
8:02 PM -9.4 °F -30.6 °F -16.6 °F 71% 30.57 in - NW 13.8 mph - N/A   Clear
8:07 PM -9.4 °F -27.9 °F -16.6 °F 71% 30.57 in - NW 10.4 mph - N/A   Clear
8:34 PM -11.2 °F -31.1 °F -16.6 °F 77% 30.57 in - NW 11.5 mph 17.3 mph N/A   Clear
8:54 PM -11.2 °F -31.1 °F -16.6 °F 77% 30.57 in - NW 11.5 mph - N/A   Clear
9:09 PM -11.2 °F -29.0 °F -18.4 °F 70% 30.57 in - NW 9.2 mph - N/A   Clear
9:34 PM -11.2 °F -29.0 °F -18.4 °F 70% 30.57 in 10.0 mi WNW 9.2 mph - N/A   Clear
9:54 PM -13.0 °F -27.0 °F -18.4 °F 77% 30.58 in 10.0 mi NW 5.8 mph - N/A   Clear
10:14 PM -13.0 °F -28.6 °F -18.4 °F 77% 30.59 in 10.0 mi NW 6.9 mph - N/A   Clear
10:34 PM -13.0 °F -25.1 °F -18.4 °F 77% 30.59 in 10.0 mi WNW 4.6 mph - N/A   Clear
10:54 PM -13.0 °F -30.0 °F -18.4 °F 77% 30.59 in 10.0 mi WNW 8.1 mph - N/A   Clear
11:14 PM -13.0 °F -28.6 °F -18.4 °F 77% 30.59 in 10.0 mi WNW 6.9 mph - N/A   Clear
11:34 PM -13.0 °F -30.0 °F -18.4 °F 77% 30.59 in 10.0 mi West 8.1 mph - N/A   Clear
11:54 PM -13.0 °F -27.0 °F -18.4 °F 77% 30.59 in 10.0 mi WNW 5.8 mph - N/A   Clear